Rechercher aéroport 
image banner adimage banner adimage banner ad
image banner ad

CA24 - Scripps Memorial Hospital La Jolla

Situé à La Jolla, United States

ICAO - CA24, IATA -

Données fournies par Airmate  

Information générale

Coordonnées: N32°53'11" W117°13'32"
Élévation : 340 feet MSL.
 
Voir autres Aéroports à California

Données opérationnelles

Special qualification required
Heure actuelle UTC:
Heure actuelle locale:
Météo à : KNKX - Miramar Mcas ( 8 km )
METAR: KNKX 210255Z 00000KT 10SM CLR 18/15 A2994 RMK AO2 SLP135 T01780150 53014
TAF: TAF KNKX 2103/2203 VRB06KT 9999 SKC QNH2989INS TEMPO 2109/2115 BKN010 FM211930 28008KT 9999 SKC QNH2998INS FM220130 VRB05KT 9999 FEW010 QNH3001INS T16/2113Z T31/2121Z
Voir NOTAMs / SUP AIP / TFR affectant cet aéroport [VIEW]
Fréquences de communication: [VIEW]

Pistes:

Coordonnées de l'aéroport

Adresse: La Jolla United States

Vue satellite de CA24